Regional Weather Roundup
Issued by NWS

Home | Current Version | Previous Version | Text Only | Print | Product List | Glossary On
Versions: 1 2 3 4 5 6 7 8 9 10 11 12 13 14 15 16 17 18 19 20 21 22 23 24 25 26 27 28 29 30 31 32 33 34 35 36 37 38 39 40 41 42 43 44 45 46 47 48 49 50
000
ASUS45 KABQ 211210
RWRNM
WEATHER ROUNDUP FOR NEW MEXICO
NATIONAL WEATHER SERVICE ALBUQUERQUE NM
600 AM MDT TUE OCT 21 2014

NOTE: "FAIR" MEANS FEW OR NO CLOUDS BELOW 12,000 FEET AGL WITH NO
       SIGNIFICANT WEATHER OR OBSTRUCTIONS TO VISION.

      THIS PRODUCT IS RELEASED AS TWO VERSIONS.  ONE VERSION NEAR
      THE TOP OF THE HOUR CONTAINING PRELIMINARY DATA FROM ALBUQUERQUE
      AND OTHER STATIONS.  A FINAL VERSION WITH ADDITIONAL DATA IS
      ISSUED ABOUT 10 MINUTES AFTER THE HOUR.

NMZ501-503-504-510>518-211300-
NORTHWEST PLATEAU/NORTHCENTRAL MOUNTAINS

CITY           SKY/WX    TMP DP  RH WIND       PRES   REMARKS
FARMINGTON     PTCLDY    51  43  74 E8        30.12F
6HR MIN TEMP:  51; 6HR MAX TEMP:  55;

LOS ALAMOS     CLOUDY    48  45  89 CALM      30.23S
SANTA FE       MOCLDY    47  44  90 N5        30.19S
6HR MIN TEMP:  46; 6HR MAX TEMP:  51;

TAOS           CLEAR     36  30  80 NE6       30.23F WCI  31
ANGEL FIRE     FOG       28  26  91 CALM      30.30S VSB 1/4

$$
NMZ402-403-502-505>509-211300-
WESTCENTRAL MOUNTAINS/SOUTHWEST MOUNTAINS

CITY           SKY/WX    TMP DP  RH WIND       PRES   REMARKS
GALLUP         CLEAR     38  36  92 CALM      30.17S
6HR MIN TEMP:  37; 6HR MAX TEMP:  47;

GRANTS         CLEAR     36  34  93 CALM      30.20S
SILVER CITY    CLOUDY    48  48 100 W3        30.13S

$$
NMZ407-409-411-412-211300-
SOUTHERN DESERTS

CITY           SKY/WX    TMP DP  RH WIND       PRES   REMARKS
LORDSBURG      FAIR      52  50  93 MISG      30.07R
DEMING         CLEAR     53  52  96 E5        30.07F
6HR MIN TEMP:  53; 6HR MAX TEMP:  57; 6HR PCP:  0.04;

LAS CRUCES     PTCLDY    54  52  95 NW3       30.09S
HOLLOMAN AFB   MOCLDY    54  54 100 E6        30.08S
T OR C         PTCLDY    53  51  93 N5        30.10S
6HR MIN TEMP:  52; 6HR MAX TEMP:  57;


$$
NMZ519>523-211300-
CENTRAL VALLEYS/CENTRAL HIGHLANDS

CITY           SKY/WX    TMP DP  RH WIND       PRES   REMARKS
ALBUQUERQUE    CLOUDY    53  48  83 N7        30.15S
6HR MIN TEMP:  52; 6HR MAX TEMP:  58;

DOUBLE EAGLE   MOCLDY    48  46  93 NW8       30.17S
MORIARTY ARPT  CLOUDY    46  44  93 NW3       30.20S
6HR MIN TEMP:  44; 6HR MAX TEMP:  49;

CLINES CORNERS CLOUDY    48  42  80 E5        30.20S
6HR MIN TEMP:  44; 6HR MAX TEMP:  49;

BELEN          NOT AVBL
SOCORRO        FAIR      48  47  96 NW5       30.14R
6HR MIN TEMP:  48; 6HR MAX TEMP:  56;


$$
NMZ524>526-539-540-211300-
SOUTHCENTRAL MOUNTAINS

CITY           SKY/WX    TMP DP  RH WIND       PRES   REMARKS
RUIDOSO        NOT AVBL

$$
NMZ527>531-211300-
NORTHEAST HIGHLANDS/NORTHEAST PLAINS

CITY           SKY/WX    TMP DP  RH WIND       PRES   REMARKS
LAS VEGAS      CLOUDY    46  42  86 CALM      30.22S
6HR MIN TEMP:  41; 6HR MAX TEMP:  48;

RATON          CLEAR     40  37  89 N7        30.18S
6HR MIN TEMP:  38; 6HR MAX TEMP:  51;

CLAYTON        CLEAR     51  43  74 W8        30.12S
6HR MIN TEMP:  50; 6HR MAX TEMP:  54;


$$
NMZ532>537-211300-
EASTCENTRAL PLAINS

CITY           SKY/WX    TMP DP  RH WIND       PRES   REMARKS
TUCUMCARI      PTCLDY    49  44  83 S3        30.12R
6HR MIN TEMP:  48; 6HR MAX TEMP:  56;

CANNON AFB     CLEAR     51  48  92 N7        30.14S
6HR MIN TEMP:  50; 6HR MAX TEMP:  55;

CLOVIS AIRPORT NOT AVBL

$$
NMZ028-029-538-211300-
SOUTHEAST PLAINS

CITY           SKY/WX    TMP DP  RH WIND       PRES   REMARKS
ROSWELL        MOCLDY    57  55  93 CALM      30.12R
6HR MIN TEMP:  57; 6HR MAX TEMP:  59; 6HR PCP:  0.07;

CARLSBAD       LGT RAIN  61  59  93 NW7       30.07F
6HR MIN TEMP:  60; 6HR MAX TEMP:  61; 6HR PCP:  0.04;

HOBBS          CLOUDY    57  55  94 CALM      30.12


$$


USA.gov is the U.S. government's official web portal to all federal, state and local government web resources and services.